DW7589 Weather Reports


time (UTC)temp
F
wind
direction
speed
knots
gust
knots
rain 1hr
in
rain 24hr
in
rain mn
in
humidity
%
barometer
mb
20260831160244 92 164 1.7 4.3 0.00 0.00 0.00 50 1017.3
20260831155745 91 169 1.7 5.2 0.00 0.00 0.00 52 1017.2
20260831154746 91 209 1.7 3.5 0.00 0.00 0.00 53 1017.1
20260831153744 90 201 1.7 6.1 0.00 0.00 0.00 56 1017.1
20260831152744 89 210 1.7 5.2 0.00 0.00 0.00 59 1017.1
20260831152245 89 191 1.7 4.3 0.00 0.00 0.00 60 1017.0
20260831151744 88 176 1.7 4.3 0.00 0.00 0.00 62 1017.0
20260831150244 87 247 2.6 6.1 0.00 0.00 0.00 66 1017.1
20260831145745 86 235 1.7 5.2 0.00 0.00 0.00 68 1017.1
20260831145245 86 211 1.7 3.5 0.00 0.00 0.00 69 1017.0
20260831144746 86 216 1.7 7.0 0.00 0.00 0.00 70 1017.1
20260831144245 85 224 2.6 7.0 0.00 0.00 0.00 70 1017.0
20260831143745 84 236 2.6 5.2 0.00 0.00 0.00 72 1017.0
20260831143245 84 232 1.7 5.2 0.00 0.00 0.00 73 1017.0
20260831142246 83 208 1.7 6.1 0.00 0.00 0.00 75 1016.9
20260831141745 83 212 1.7 6.1 0.00 0.00 0.00 76 1017.0
20260831141245 82 213 1.7 6.1 0.00 0.00 0.00 77 1016.9
20260831140746 82 220 2.6 6.1 0.00 0.00 0.00 79 1016.9
20260831140245 81 200 1.7 6.1 0.00 0.00 0.00 79 1016.9
20260831135745 81 199 0.9 4.3 0.00 0.00 0.00 80 1016.8
20260831134745 80 199 0.9 2.6 0.00 0.00 0.00 83 1016.8
20260831132745 78 0 0.0 1.7 0.00 0.00 0.00 86 1016.7
20260831132245 77 0 0.0 1.7 0.00 0.00 0.00 86 1016.7
20260831131745 77 0 0.0 1.7 0.00 0.00 0.00 86 1016.6
20260831131246 77 0 0.0 0.9 0.00 0.00 0.00 87 1016.5
20260831130745 77 177 0.9 1.7 0.00 0.00 0.00 87 1016.3
20260831130246 76 172 0.9 1.7 0.00 0.00 0.00 87 1016.3
20260831125746 76 0 0.0 1.7 0.00 0.00 0.00 87 1016.2
20260831125246 76 0 0.0 0.9 0.00 0.00 0.00 87 1016.2
20260831124745 76 0 0.0 0.9 0.00 0.00 0.00 87 1016.1
20260831124245 76 0 0.0 1.7 0.00 0.00 0.00 87 1016.1
20260831123745 76 0 0.0 1.7 0.00 0.00 0.00 87 1016.2
20260831123245 76 0 0.0 0.9 0.00 0.00 0.00 87 1016.1
20260831122245 76 159 0.9 1.7 0.00 0.00 0.00 87 1016.0
20260831121745 76 153 0.9 1.7 0.00 0.00 0.00 87 1015.9
20260831121247 76 152 0.9 2.6 0.00 0.00 0.00 87 1015.9
20260831120747 76 155 0.9 2.6 0.00 0.00 0.00 87 1015.7
20260831115745 76 156 0.9 1.7 0.00 0.00 0.00 86 1015.6
20260831115245 76 155 0.9 1.7 0.00 0.00 0.00 86 1015.4
20260831114745 76 154 0.9 1.7 0.00 0.00 0.00 85 1015.4
20260831114246 76 160 0.9 2.6 0.00 0.00 0.00 84 1015.5
20260831113747 76 0 0.0 2.6 0.00 0.00 0.00 84 1015.4
20260831113245 76 0 0.0 0.9 0.00 0.00 0.00 84 1015.3
20260831112246 76 0 0.0 0.9 0.00 0.00 0.00 84 1015.3
20260831111745 76 0 0.0 0.9 0.00 0.00 0.00 84 1015.2
20260831111247 77 0 0.0 0.9 0.00 0.00 0.00 83 1015.2
20260831110746 77 0 0.0 0.9 0.00 0.00 0.00 83 1015.2
20260831110245 77 0 0.0 0.9 0.00 0.00 0.00 83 1015.1
20260831105745 77 0 0.0 0.9 0.00 0.00 0.00 82 1015.1
20260831104245 77 0 0.0 1.7 0.00 0.00 0.00 82 1015.1
20260831103746 77 170 0.9 1.7 0.00 0.00 0.00 81 1015.1
20260831103245 77 168 0.9 1.7 0.00 0.00 0.00 81 1015.1
20260831102745 77 171 0.9 1.7 0.00 0.00 0.00 81 1015.1
20260831102245 78 178 0.9 1.7 0.00 0.00 0.00 80 1015.1
20260831101747 78 179 0.9 1.7 0.00 0.00 0.00 80 1015.1
20260831100745 78 174 0.9 1.7 0.00 0.00 0.00 79 1015.1
20260831100245 78 168 0.9 2.6 0.00 0.00 0.00 78 1015.0
20260831095746 78 168 0.9 3.5 0.00 0.00 0.00 78 1015.0
20260831095244 78 170 0.9 3.5 0.00 0.00 0.00 78 1014.9
20260831094745 79 172 0.9 2.6 0.00 0.00 0.00 77 1014.9
20260831094245 79 168 0.9 2.6 0.00 0.00 0.00 77 1014.9
20260831093746 79 171 0.9 2.6 0.00 0.00 0.00 76 1014.9
20260831093245 79 182 0.9 1.7 0.00 0.00 0.00 76 1015.0
20260831092745 79 175 0.9 2.6 0.00 0.00 0.00 75 1015.0
20260831092245 79 168 0.9 2.6 0.00 0.00 0.00 75 1014.9
20260831090746 79 172 0.9 1.7 0.00 0.00 0.00 74 1014.8
20260831090245 80 170 0.9 2.6 0.00 0.00 0.00 73 1014.7
20260831085746 80 167 0.9 2.6 0.00 0.00 0.00 73 1014.7
20260831084745 80 167 0.9 2.6 0.00 0.00 0.00 73 1014.7
20260831084245 80 167 0.9 2.6 0.00 0.00 0.00 72 1014.7
20260831083245 80 171 0.9 2.6 0.00 0.00 0.00 72 1014.7
20260831082745 81 175 0.9 1.7 0.00 0.00 0.00 71 1014.6
20260831081747 81 166 0.9 1.7 0.00 0.00 0.00 71 1014.6
20260831081245 81 159 0.9 2.6 0.00 0.00 0.00 70 1014.7
20260831080746 81 157 0.9 2.6 0.00 0.00 0.00 70 1014.7
20260831075745 82 162 0.9 3.5 0.00 0.00 0.00 69 1014.7
20260831075246 82 158 0.9 2.6 0.00 0.00 0.00 69 1014.7
20260831074745 82 159 0.9 4.3 0.00 0.00 0.00 68 1014.8
20260831073746 82 162 1.7 3.5 0.00 0.00 0.00 68 1014.9
20260831073245 82 160 1.7 4.3 0.00 0.00 0.00 67 1014.8
20260831072247 83 169 0.9 2.6 0.00 0.00 0.00 66 1014.9
20260831071745 83 174 0.9 2.6 0.00 0.00 0.00 66 1014.9
20260831071246 83 172 0.9 2.6 0.00 0.00 0.00 66 1014.9
20260831070745 83 171 0.9 2.6 0.00 0.00 0.00 65 1014.9
20260831070246 83 168 0.9 2.6 0.00 0.00 0.00 65 1014.9
20260831065746 83 169 0.9 3.5 0.00 0.00 0.00 65 1014.9
20260831065246 83 170 0.9 3.5 0.00 0.00 0.00 64 1014.8
20260831064746 83 173 0.9 2.6 0.00 0.00 0.00 64 1014.8
20260831064245 83 177 0.9 1.7 0.00 0.00 0.00 63 1014.7
20260831063745 83 175 0.9 2.6 0.00 0.00 0.00 63 1014.7
20260831062747 84 173 0.9 3.5 0.00 0.00 0.00 62 1014.7
20260831062246 84 177 0.9 2.6 0.00 0.00 0.00 61 1014.7
20260831061747 84 177 0.9 3.5 0.00 0.00 0.00 61 1014.7
20260831061245 84 176 0.9 4.3 0.00 0.00 0.00 60 1014.6
20260831060746 84 175 0.9 4.3 0.00 0.00 0.00 60 1014.6
20260831060246 84 172 0.9 3.5 0.00 0.00 0.00 59 1014.6
20260831055746 84 172 0.9 3.5 0.00 0.00 0.00 59 1014.8
20260831055246 84 172 0.9 3.5 0.00 0.00 0.00 58 1014.8
20260831054745 85 173 0.9 3.5 0.00 0.00 0.00 58 1014.8
20260831054246 85 173 1.7 3.5 0.00 0.00 0.00 57 1014.8
20260831053246 85 171 1.7 4.3 0.00 0.00 0.00 57 1014.8
20260831052745 86 171 1.7 4.3 0.00 0.00 0.00 56 1014.7
20260831051747 86 176 2.6 5.2 0.00 0.00 0.00 55 1014.6
20260831050747 86 176 1.7 4.3 0.00 0.00 0.00 55 1014.5
20260831050247 87 176 1.7 4.3 0.00 0.00 0.00 54 1014.5
20260831045746 87 177 1.7 4.3 0.00 0.00 0.00 53 1014.5
20260831045247 87 177 1.7 3.5 0.00 0.00 0.00 53 1014.5
20260831044747 87 175 1.7 3.5 0.00 0.00 0.00 52 1014.5
20260831044245 87 177 1.7 4.3 0.00 0.00 0.00 52 1014.4
20260831043746 87 176 1.7 4.3 0.00 0.00 0.00 52 1014.4
20260831043245 86 170 1.7 3.5 0.00 0.00 0.00 52 1014.4
20260831042746 86 164 0.9 3.5 0.00 0.00 0.00 52 1014.4
20260831042245 85 157 0.9 3.5 0.00 0.00 0.00 52 1014.3
20260831041747 85 152 0.9 2.6 0.00 0.00 0.00 53 1014.2
20260831040745 85 144 0.9 2.6 0.00 0.00 0.00 53 1014.1
20260831040245 86 144 0.9 2.6 0.00 0.00 0.00 52 1014.1
20260831035747 86 149 0.9 1.7 0.00 0.00 0.00 52 1014.1
20260831034246 86 153 0.9 2.6 0.00 0.00 0.00 51 1013.9
20260831033746 86 155 0.9 2.6 0.00 0.00 0.00 51 1013.9
20260831032746 87 159 0.9 3.5 0.00 0.00 0.00 52 1013.7
20260831032246 87 159 0.9 3.5 0.00 0.00 0.00 52 1013.7
20260831031746 87 157 0.9 1.7 0.00 0.00 0.00 53 1013.7
20260831030746 87 151 0.9 2.6 0.00 0.00 0.00 53 1013.7
20260831030246 87 155 0.9 2.6 0.00 0.00 0.00 53 1013.6
20260831025745 88 155 0.9 2.6 0.00 0.00 0.00 52 1013.5
20260831025247 88 156 0.9 1.7 0.00 0.00 0.00 52 1013.4
20260831024745 88 157 0.9 2.6 0.00 0.00 0.00 52 1013.3
20260831024246 88 0 0.0 2.6 0.00 0.00 0.00 52 1013.2
20260831023745 88 0 0.0 0.9 0.00 0.00 0.00 51 1013.3
20260831023246 88 0 0.0 0.9 0.00 0.00 0.00 51 1013.2
20260831022746 88 0 0.0 1.7 0.00 0.00 0.00 50 1013.1
20260831022246 88 0 0.0 1.7 0.00 0.00 0.00 50 1013.0
20260831021746 88 0 0.0 1.7 0.00 0.00 0.00 50 1013.0
20260831021246 89 0 0.0 1.7 0.00 0.00 0.00 49 1012.9
20260831020745 89 0 0.0 0.9 0.00 0.00 0.00 48 1012.9
20260831015745 90 0 0.0 0.9 0.00 0.00 0.00 46 1012.8
20260831015246 90 0 0.0 1.7 0.00 0.00 0.00 45 1012.7
20260831014746 90 156 0.9 1.7 0.00 0.00 0.00 44 1012.7
20260831014246 90 156 0.9 1.7 0.00 0.00 0.00 43 1012.6
20260831013746 90 156 0.9 1.7 0.00 0.00 0.00 43 1012.6
20260831013246 91 156 0.9 1.7 0.00 0.00 0.00 43 1012.6
20260831012745 91 160 0.9 1.7 0.00 0.00 0.00 43 1012.6
20260831012247 91 163 0.9 2.6 0.00 0.00 0.00 43 1012.6
20260831011746 92 158 0.9 2.6 0.00 0.00 0.00 43 1012.5
20260831011246 92 150 0.9 1.7 0.00 0.00 0.00 43 1012.4
20260831010746 92 152 0.9 1.7 0.00 0.00 0.00 42 1012.4
20260831005745 93 151 1.7 3.5 0.00 0.00 0.00 41 1012.3
20260831005246 93 149 1.7 3.5 0.00 0.00 0.00 40 1012.3
20260831004746 93 148 1.7 3.5 0.00 0.00 0.00 39 1012.3
20260831004246 94 151 1.7 3.5 0.00 0.00 0.00 39 1012.3
20260831003747 94 153 1.7 4.3 0.00 0.00 0.00 38 1012.3
20260831003246 94 151 1.7 4.3 0.00 0.00 0.00 38 1012.2
20260831002746 95 150 1.7 4.3 0.00 0.00 0.00 38 1012.2
20260831002245 95 150 2.6 4.3 0.00 0.00 0.00 37 1012.3
20260831001746 96 149 1.7 4.3 0.00 0.00 0.00 37 1012.2
20260831001247 96 149 2.6 4.3 0.00 0.00 0.00 36 1012.3
20260831000746 96 150 2.6 4.3 0.00 0.00 0.00 36 1012.3
20260831000248 97 147 2.6 4.3 0.00 0.00 0.00 34 1012.3
20260830235247 97 145 2.6 5.2 0.00 0.00 0.00 33 1012.3
20260830233746 98 147 2.6 6.1 0.00 0.00 0.00 32 1012.3
20260830233246 98 148 2.6 5.2 0.00 0.00 0.00 32 1012.3
20260830232746 98 149 2.6 5.2 0.00 0.00 0.00 31 1012.4
20260830232245 98 148 2.6 5.2 0.00 0.00 0.00 31 1012.3
20260830231746 99 146 2.6 4.3 0.00 0.00 0.00 32 1012.3
20260830230745 99 141 2.6 5.2 0.00 0.00 0.00 30 1012.3
20260830230246 99 145 2.6 5.2 0.00 0.00 0.00 32 1012.4
20260830225745 99 154 2.6 5.2 0.00 0.00 0.00 32 1012.4
20260830225246 99 152 2.6 6.1 0.00 0.00 0.00 32 1012.4
20260830224747 99 144 3.5 6.1 0.00 0.00 0.00 32 1012.5
20260830223746 99 153 3.5 7.8 0.00 0.00 0.00 33 1012.5
20260830222745 100 150 1.7 6.1 0.00 0.00 0.00 30 1012.5
20260830222247 100 159 1.7 6.1 0.00 0.00 0.00 30 1012.5
20260830221746 100 158 2.6 7.0 0.00 0.00 0.00 29 1012.6
20260830221246 99 149 2.6 7.0 0.00 0.00 0.00 30 1012.6
20260830220747 99 148 2.6 6.1 0.00 0.00 0.00 29 1012.7
20260830220246 100 152 2.6 6.1 0.00 0.00 0.00 28 1012.7
20260830215747 100 164 2.6 5.2 0.00 0.00 0.00 30 1012.7
20260830214746 99 153 2.6 4.3 0.00 0.00 0.00 32 1012.7
20260830214246 100 149 2.6 5.2 0.00 0.00 0.00 30 1012.7
20260830213746 100 147 3.5 7.0 0.00 0.00 0.00 29 1012.7
20260830213246 99 140 3.5 7.8 0.00 0.00 0.00 31 1012.8
20260830212747 99 139 3.5 7.8 0.00 0.00 0.00 31 1012.8
20260830212246 99 145 3.5 7.0 0.00 0.00 0.00 32 1012.9
20260830211747 98 143 2.6 7.0 0.00 0.00 0.00 32 1012.9
20260830211246 99 148 2.6 7.0 0.00 0.00 0.00 32 1013.1
20260830210247 99 188 1.7 5.2 0.00 0.00 0.00 33 1013.2
20260830205746 100 176 1.7 4.3 0.00 0.00 0.00 32 1013.3
20260830204247 100 161 2.6 6.1 0.00 0.00 0.00 31 1013.5
20260830203747 100 142 2.6 6.1 0.00 0.00 0.00 30 1013.5
20260830202746 100 143 3.5 7.0 0.00 0.00 0.00 31 1013.6
20260830202246 100 149 3.5 7.0 0.00 0.00 0.00 30 1013.7
20260830201746 100 156 3.5 6.1 0.00 0.00 0.00 31 1013.8
20260830201246 99 149 3.5 7.8 0.00 0.00 0.00 32 1013.9
20260830200746 99 151 3.5 8.7 0.00 0.00 0.00 31 1013.9
20260830200248 99 159 3.5 8.7 0.00 0.00 0.00 32 1013.9
20260830195745 99 159 3.5 7.8 0.00 0.00 0.00 33 1014.0
20260830195246 99 160 2.6 7.8 0.00 0.00 0.00 33 1014.1
20260830194745 99 156 3.5 7.8 0.00 0.00 0.00 32 1014.2
20260830194246 99 154 3.5 7.8 0.00 0.00 0.00 31 1014.2
20260830193746 98 169 2.6 7.0 0.00 0.00 0.00 33 1014.3
20260830192746 99 154 3.5 8.7 0.00 0.00 0.00 31 1014.6
20260830192247 99 154 2.6 6.1 0.00 0.00 0.00 33 1014.6
20260830191746 98 153 2.6 6.1 0.00 0.00 0.00 35 1014.7
20260830191247 98 161 2.6 7.0 0.00 0.00 0.00 35 1014.8
20260830190746 98 149 3.5 7.8 0.00 0.00 0.00 34 1014.9
20260830190246 98 146 3.5 7.8 0.00 0.00 0.00 35 1014.9
20260830185746 98 148 2.6 7.8 0.00 0.00 0.00 35 1015.0
20260830185246 98 148 2.6 5.2 0.00 0.00 0.00 36 1015.0
20260830184746 98 157 2.6 5.2 0.00 0.00 0.00 37 1015.1
20260830184246 98 157 2.6 7.8 0.00 0.00 0.00 37 1015.1
20260830183247 97 158 3.5 7.8 0.00 0.00 0.00 36 1015.3
20260830182747 97 170 2.6 7.0 0.00 0.00 0.00 37 1015.5
20260830182247 96 168 2.6 7.8 0.00 0.00 0.00 38 1015.5
20260830181747 96 155 2.6 7.8 0.00 0.00 0.00 39 1015.7
20260830181247 96 155 2.6 7.0 0.00 0.00 0.00 37 1015.7
20260830180748 96 160 3.5 6.1 0.00 0.00 0.00 36 1015.8
20260830180246 96 156 3.5 6.1 0.00 0.00 0.00 37 1015.9
20260830175746 96 151 2.6 6.1 0.00 0.00 0.00 38 1015.9
20260830174747 96 154 3.5 7.8 0.00 0.00 0.00 38 1016.2
20260830174246 96 151 3.5 7.0 0.00 0.00 0.00 39 1016.3
20260830173745 95 147 3.5 8.7 0.00 0.00 0.00 39 1016.4
20260830173247 94 148 3.5 8.7 0.00 0.00 0.00 41 1016.5
20260830172746 95 165 2.6 7.8 0.00 0.00 0.00 41 1016.6
20260830172246 94 184 2.6 7.8 0.00 0.00 0.00 41 1016.6
20260830171246 94 175 2.6 4.3 0.00 0.00 0.00 45 1016.8
20260830165746 94 181 2.6 6.1 0.00 0.00 0.00 44 1016.9
20260830165246 94 181 2.6 6.1 0.00 0.00 0.00 44 1017.0
20260830164746 93 190 2.6 5.2 0.00 0.00 0.00 45 1017.0
20260830164247 93 173 2.6 5.2 0.00 0.00 0.00 44 1017.1
20260830163747 93 168 2.6 6.1 0.00 0.00 0.00 47 1017.1
20260830163247 92 177 1.7 6.1 0.00 0.00 0.00 49 1017.2
20260830162746 92 189 1.7 5.2 0.00 0.00 0.00 48 1017.2
20260830162246 92 194 1.7 8.7 0.00 0.00 0.00 49 1017.3
20260830161746 91 178 2.6 8.7 0.00 0.00 0.00 49 1017.3
20260830161246 91 162 2.6 6.1 0.00 0.00 0.00 50 1017.3
20260830160746 91 170 1.7 6.1 0.00 0.00 0.00 52 1017.3